Location: La Pernelle
(49.6188°N, 1.2999°W)
Time: 17:55:22
(UTC+00:00)

SL-16 R/B - Pass Details

Date: 24 October 2021
Orbit: 842 x 846 km, 71.0° (Epoch: 28 November)

Event Time Altitude Azimuth Distance (km) Brightness Sun altitude
Exits shadow 04:49:18 24° 227° (SW) 1,685 3.3 -18.7°
Drops below altitude 10° 04:52:19 10° 199° (SSW) 2,463 4.4 -18.2°
Sets 04:55:03 0° 188° (S) 3,393 5.2 -17.8°
